User: anonymous   Login
Location: Cantaing
(50.1487°N, 3.1675°E)
Time: 09:23:55
(UTC+00:00)
Language:

Thor Agena Rocket - Orbit

View from above orbital plane
View from above orbital plane
View from above satellite
View from above satellite

Ground track
Ground track

The orbit is defined by the following mean orbital elements,

1 00733U          26064.89394102 +.00000000 +00000-0 +11218-3 0 00006
2 00733  99.1227  78.0245 0031916 269.4934  90.2592 14.34017361    05
Epoch (UTC): 05 March 2026 21:27:16
Eccentricity: 0.0031916
inclination: 99.1227°
perigee height: 755 km
apogee height: 801 km
right ascension of ascending node: 78.0245°
argument of perigee: 269.4934°
revolutions per day: 14.34017361
mean anomaly at epoch: 90.2592°

The dashed part of the orbit path shows where the satellite is in the earth's shadow,  

DLR